{"data":{"norad_id":66617,"intl_designator":"2025-271A","name":"STARLINK-35940","alt_names":[],"object_type":"PAYLOAD","status":"ACTIVE","operator":null,"country":"US","launch_date":"2025-11-23","launch_site_code":"AFWTR","launch_vehicle":null,"mission":null,"orbit_class":"UNKNOWN","rcs_meters":null,"size_class":null,"mass_kg":null,"dimensions":null,"purposes":["comms"],"wikipedia_slug":null,"has_3d_model":false,"image_url":null,"decayed_at":null,"tle_current":{"epoch":"2026-09-20T10:23:56.384736Z","epoch_age_seconds":92304,"freshness":"FRESH","line1":"1 66617U 25271A   26263.43329149  .00020939  00000+0  62880-3 0  9996","line2":"2 66617  53.1600 313.9005 0001168  75.4903 284.6229 15.34415775 47408","mean_motion":15.34415775,"eccentricity":0.0001168,"inclination_deg":53.16,"raan_deg":313.9005,"arg_perigee_deg":75.4903,"mean_anomaly_deg":284.6229,"bstar":0.0006288,"rev_number":4740,"period_min":93.846793252631,"perigee_km":461.85734932062,"apogee_km":463.45535864811,"semimajor_km":6840.7933539844,"source":"CELESTRAK","updated_at":"2026-09-21T09:00:35.981913Z"}}}